Location: Manning Provincial Park
(49.0805°N, 120.7632°W)
Time: 15:33:20
(UTC-08:00)

ISS - Visible Passes

Search period start: 08 December 2019 00:00
Search period end: 18 December 2019 00:00
Orbit: 411 x 421 km, 51.6° (Epoch: 08 December)

Date Brightness Start Highest point End Pass type
(mag) Time Alt. Az. Time Alt. Az. Time Alt. Az.
08 Dec -3.5 17:08:18 10° WNW 17:11:39 70° SSW 17:15:00 10° ESE visible
08 Dec -1.0 18:45:50 10° W 18:47:56 16° SW 18:48:46 14° SSW visible
09 Dec -1.4 17:56:52 10° W 17:59:36 23° SW 18:02:21 10° SSE visible
10 Dec -2.0 17:08:09 10° W 17:11:14 34° SSW 17:14:19 10° SSE visible
11 Dec -0.3 17:58:09 10° WSW 17:58:55 11° SW 17:59:41 10° SSW visible
12 Dec -0.6 17:08:25 10° W 17:10:36 17° SW 17:12:49 10° S visible
